Regional Weather Roundup
Issued by NWS

Home | Current Version | Previous Version | Graphics & Text | Print | Product List | Glossary On
Versions: 1 2 3 4 5 6 7 8 9 10 11 12 13 14 15 16 17 18 19 20 21 22 23 24 25 26 27 28 29 30 31 32 33 34 35 36 37 38 39 40 41 42 43 44 45 46 47 48 49 50
000
ASUS43 KLOT 270909
RWRIL

ILLINOIS REGIONAL WEATHER ROUNDUP
NATIONAL WEATHER SERVICE CHICAGO/ROMEOVILLE IL
400 AM CDT SAT MAY 27 2017

NOTE: "FAIR" INDICATES FEW OR NO CLOUDS BELOW 12,000 FEET WITH NO
SIGNIFICANT WEATHER AND/OR OBSTRUCTIONS TO VISIBILITY.

* THESE STATIONS ARE NOT UNDER NWS QUALITY CONTROL. THEY ALSO MAY NOT
  REPORT WEATHER SUCH AS PRECIPITATION OR FOG.

ILZ001-002-007-009-015-016-024-271000-
NORTHWEST ILLINOIS

CITY           SKY/WX    TMP DP  RH WIND       PRES   REMARKS
MOLINE         CLOUDY    58  56  93 E3        29.87R FOG
STERLING*      MOCLDY    54  54 100 E7        29.88S FOG
SAVANNA*       FOG       51  51  99 CALM      29.87F VSB 1/4
$$

ILZ003-004-008-010-011-017-018-271000-
NORTH CENTRAL ILLINOIS

CITY           SKY/WX    TMP DP  RH WIND       PRES   REMARKS
ROCKFORD       CLEAR     52  50  93 N5        29.91R FOG
FREEPORT*      FOG       48  47  99 CALM      29.90S VSB 1/4
ROCHELLE*      CLOUDY    53  53  99 N7        29.89R FOG
DE KALB*       CLOUDY    53  52  99 N5        29.89R FOG
PERU*          CLOUDY    56  55  95 NE6       29.87S FOG
$$

ILZ005-006-012>014-019>023-271000-
NORTHEAST ILLINOIS

CITY           SKY/WX    TMP DP  RH WIND       PRES   REMARKS
CHICAGO-OHARE  CLOUDY    53  50  89 N8        29.86S
CHICAGO-MIDWAY MOCLDY    56  54  93 N8        29.86R
AURORA         CLEAR     54  52  93 N5        29.88R
LANSING*       CLOUDY    55  55  99 N3        29.86S
JOLIET*        PTCLDY    57  56  97 CALM      29.86R FOG
WAUKEGAN       CLOUDY    52  51  97 NE3       29.88S FOG
DUPAGE AIRPORT CLEAR     50  50 100 N7        29.86S FOG
KANKAKEE*      CLOUDY    58  57  97 CALM      29.85S FOG
WHEELING       PTCLDY    50  50 100 N3        29.89R
MORRIS*        CLEAR     55  54  96 CALM      29.85R FOG
ROMEOVILLE*    PTCLDY    55  55 100 N7        29.86R FOG
$$

LMZ740>746-271000-
SOUTHERN LAKE MICHIGAN

STATION/POSITION SKY/WX   TEMP    WIND        PRES    VSBY  WAVE
                          AIR SEA DIR/SP/G                  HT/PER
                          (F)     (DEG/KT/KT) (MB)    (MI)  (FT/S)
SOUTHERN BUOY              48 46   40/  4/  6 1011.8          0
WILMETTE HARBOR            48 51                N/A           1/ 2
HARRISON CRIB              51     340/ 13/ 14   N/A
BURNHAM HARBOR             53      10/  8/ 10   N/A
CALUMET HARBOR             54     350/  5/  7 1010.7S
BURNS HARBOR               56      50/  8/  9 1011.5S
MICHIGAN CITY              54      30/ 11/ 12   N/A
MICHIGAN CITY 6N           53 53   50/ 10/ 12   N/A           1/ 3
ST. JOSEPH                 56 58   50/  8/ 10 1011.4          1
$$

ILZ025>027-034>036-040-047-049-050-058-095>099-271000-
WEST-CENTRAL ILLINOIS

CITY           SKY/WX    TMP DP  RH WIND       PRES   REMARKS
QUINCY         CLEAR     61  59  93 E3        29.87S
GALESBURG*     FOG       58  58 100 NE5       29.87R VSB 1/4
MACOMB*        FOG       56  56 100 CALM      29.89R VSB<1/4
JACKSONVILLE*  FOG       60  59  99 NW5       29.86S VSB 1/4
PITTSFIELD*    CLEAR     62  61  99 CALM      29.88S
$$

ILZ028>032-037-038-041>044-048-051>054-059>061-271000-
CENTRAL ILLINOIS

CITY           SKY/WX    TMP DP  RH WIND       PRES   REMARKS
PONTIAC        CLOUDY    60  59  97 N5        29.86S FOG
DECATUR        CLEAR     64  62  93 NW8       29.85S
PEORIA         FOG       59  59 100 N3        29.86R VSB 3/4
LACON*         CLOUDY    57  57 100 NE3       29.86R FOG
LINCOLN*       CLOUDY    62  62 100 CALM      29.86S FOG
SPRINGFIELD    FOG       62  61  96 CALM      29.86R VSB 1/4
TAYLORVILLE    CLEAR     63  63  99 N6        29.85S
$$

ILZ033-039-045-046-055>057-062-063-271000-
EAST-CENTRAL ILLINOIS

CITY           SKY/WX    TMP DP  RH WIND       PRES   REMARKS
CHAMPAIGN      FOG       63  61  93 NW7       29.84S VSB 1/4
RANTOUL*       FOG       64  63  99 N7        29.85R VSB 3/4
MATTOON        CLEAR     64  64 100 NW5       29.83S FOG
PARIS*         CLEAR     64  64 100 W6        29.84R FOG
$$

ILZ079-100>102-271000-
SOUTHWEST ILLINOIS

CITY           SKY/WX    TMP DP  RH WIND       PRES   REMARKS
ALTON          MOCLDY    68  66  92 CALM      29.85S
BELLEVILLE     PTCLDY    68  66  94 N3        29.84F
CAHOKIA*       PTCLDY    68  65  90 CALM      29.83F
SPARTA*        CLOUDY    67  65  94 CALM      29.84S
$$

ILZ064>066-069>071-074>076-080>082-084>086-088>090-092>094-271000-
SOUTH-CENTRAL ILLINOIS

CITY           SKY/WX    TMP DP  RH WIND       PRES   REMARKS
CARBONDALE     CLOUDY    66  66 100 CALM      29.84S FOG
CAIRO*         MOCLDY    68  68  99 CALM      29.84S FOG
EFFINGHAM*     CLEAR     65  65 100 CALM      29.85S FOG
MARION         CLOUDY    70  68  94 S3        29.85S FOG
MT. VERNON       N/A     66  64  94 CALM      29.84S FOG
CENTRALIA*     PTCLDY    68  67  98 CALM      29.83S
SALEM*         CLEAR     68  65  92 W3        29.84S FOG
METROPOLIS*    CLOUDY    68  67  98 CALM      29.85S FOG
$$

ILZ067-068-072-073-078-083-087-091-271000-
SOUTHEAST ILLINOIS

CITY           SKY/WX    TMP DP  RH WIND       PRES   REMARKS
LAWRENCEVILLE  CLOUDY    69  67  93 CALM      29.83F
FLORA*         CLEAR     69  67  93 W6        29.84S
FAIRFIELD*     PTCLDY    69  68  97 CALM      29.82F
HARRISBURG*    CLOUDY    67  67  99 CALM      29.84F FOG
ROBINSON*      CLOUDY    67  66  96 SW6       29.84F
CARMI*         PTCLDY    69  68  97 SW5       29.84S
$$

ABBREVIATIONS USED IN REMARKS
   TC - TEMPERATURE IN CELSIUS
  WCI - WIND CHILL INDEX
   HX - HEAT INDEX
  VSB - VISIBILITY
$$





USA.gov is the U.S. government's official web portal to all federal, state and local government web resources and services.